AO-07 1 07530U 74089B 16153.89701984 -.00000038 00000-0 38972-4 0 9990 2 07530 101.5731 125.0261 0011959 343.0826 83.6586 12.53621541901201 FO-29 1 24278U 96046B 16154.75069105 -.00000030 00000-0 82544-5 0 9990 2 24278 98.5856 81.8541 0349498 239.9242 116.6814 13.53067845977564 RS-22 1 27939U 03042A 16154.66342831 .00000266 00000-0 56439-4 0 9994 2 27939 97.8865 306.8995 0012953 357.6495 2.4663 14.66404586677694 HO-68 1 36122U 09072B 16154.76937813 -.00000059 00000-0 -43517-4 0 9993 2 36122 100.1436 191.2096 0007881 35.2196 324.9432 13.16334119310710 AO-73 1 39444U 13066AE 16154.09510473 .00000647 00000-0 87430-4 0 9999 2 39444 97.6821 208.2019 0060385 70.9088 289.8651 14.81055693135342 EO-79 1 40025U 14033R 16154.80303811 .00000576 00000-0 68834-4 0 9994 2 40025 97.9297 60.2669 0014090 108.9954 251.2790 14.88002753106062 XW-2A 1 40903U 15049E 16154.86040449 .00003965 00000-0 11388-3 0 9994 2 40903 97.4467 169.8381 0015830 180.0011 279.8873 15.36327540 39359 XW-2C 1 40906U 15049H 16154.77856416 .00001630 00000-0 94200-4 0 9998 2 40906 97.4536 162.1680 0017533 87.3310 19.6526 15.13556247 38829 LILACSAT-2 1 40908U 15049K 16154.89946319 .00000968 00000-0 59042-4 0 9993 2 40908 97.4602 162.1950 0018202 80.8042 317.8139 15.12522700 38828 XW-2E 1 40909U 15049L 16154.87472374 .00002755 00000-0 15270-3 0 9997 2 40909 97.4531 162.4957 0016788 89.5654 29.8371 15.14502649 38855 UO-11 1 14781U 84021B 16154.18753262 .00000220 00000-0 33582-4 0 9996 2 14781 97.7506 206.6494 0008739 14.2045 345.9413 14.82746896734032 LO-19 1 20442U 90005G 16153.98170584 .00000015 00000-0 21340-4 0 9994 2 20442 98.5430 89.1357 0011540 185.5882 174.5175 14.32817598377177 AO-27 1 22825U 93061C 16154.39090058 .00000014 00000-0 22995-4 0 9995 2 22825 98.7581 110.5469 0008583 9.1484 350.9852 14.29956681183123 IO-26 1 22826U 93061D 16153.87903736 .00000023 00000-0 26149-4 0 9999 2 22826 98.7524 110.1576 0008962 1.5569 358.5640 14.30281203183219 GO-32 1 25397U 98043D 16154.80263720 -.00000013 00000-0 13017-4 0 9996 2 25397 98.5662 100.1184 0002090 53.7981 306.3391 14.23595116929814 NO-44 1 26931U 01043C 16154.30474959 .00000008 00000-0 35087-4 0 9992 2 26931 67.0515 351.3042 0006875 261.5747 98.4575 14.30409509766016 SO-50 1 27607U 02058C 16154.18297767 .00000117 00000-0 37495-4 0 9992 2 27607 64.5544 206.6868 0069707 220.2302 139.3630 14.75159309723054 CO-55 1 27844U 03031E 16153.97249077 .00000100 00000-0 65000-4 0 9999 2 27844 98.6923 162.4774 0009950 14.4876 345.6585 14.21951356670284 CO-57 1 27848U 03031J 16153.94118611 .00000087 00000-0 59581-4 0 9990 2 27848 098.7019 162.5311 0010041 022.6116 337.5502 14.21577640670148 CO-65 1 32785U 08021C 16154.84139820 .00000502 00000-0 61019-4 0 9996 2 32785 97.6038 189.6537 0012878 351.5570 8.5428 14.87561807438493 PRISM 1 33493U 09002B 16154.81386272 .00000832 00000-0 82070-4 0 9991 2 33493 98.2184 14.2311 0014351 254.0405 105.9242 14.94908907399085 TISAT-1 1 36799U 10035E 16154.81361186 .00000875 00000-0 97179-4 0 9991 2 36799 98.0291 264.8704 0013796 129.5735 230.6702 14.89800206319285 ALMASAT-1 1 38078U 12006B 16154.20962919 .00026795 34798-5 37934-3 0 9994 2 38078 69.4467 60.2252 0385479 123.7407 240.1118 15.02088959227332 DUCHIFAT-1 1 40021U 14033M 16154.70371984 .00000893 00000-0 10014-3 0 9993 2 40021 97.9327 61.2104 0014660 107.8131 252.4687 14.89289806106105 NANOSATCBR1 1 40024U 14033Q 16154.67884282 .00000778 00000-0 89225-4 0 9995 2 40024 97.9302 60.6031 0013917 107.7973 252.4763 14.88701879106079 DTUSAT-2 1 40030U 14033W 16154.71365233 .00000585 00000-0 70414-4 0 9993 2 40030 97.9276 59.6417 0013578 103.5929 256.6800 14.87635088106020 ANTELSAT 1 40034U 14033AA 16154.90096495 .00000502 00000-0 83064-4 0 9993 2 40034 97.9059 43.5686 0060852 71.8752 288.9069 14.73379883105073 MET-2/21 1 22782U 93055A 16154.07033131 .00000035 00000-0 17959-4 0 9991 2 22782 82.5479 325.2284 0023549 59.0472 80.3044 13.83788446149122 NOAA-15 1 25338U 98030A 16154.55527140 .00000091 00000-0 57114-4 0 9999 2 25338 98.7827 158.6755 0009767 224.0007 136.0396 14.25729604938902 NOAA-18 1 28654U 05018A 16154.53917269 .00000028 00000-0 40362-4 0 9997 2 28654 99.1971 161.0897 0015259 58.6671 301.5991 14.12286885568664 NOAA-19 1 33591U 09005A 16154.49108058 .00000063 00000-0 59391-4 0 9997 2 33591 99.0389 111.1442 0012908 260.2782 99.6931 14.12077346377067 HUBBLE 1 20580U 90037B 16154.89790509 .00000857 00000-0 42530-4 0 9996 2 20580 28.4708 353.0823 0002894 57.9912 134.3387 15.08378068232952 ISS 1 25544U 98067A 16154.94159319 .00002944 00000-0 50609-4 0 9991 2 25544 51.6430 129.0925 0001715 144.3626 259.0663 15.54733157 2777 CO-58 1 28895U 05043F 16154.18795924 .00000295 00000-0 65990-4 0 9995 2 28895 97.8316 328.8800 0015462 265.9338 94.0098 14.63196141564912 CAPE1 1 31130U 07012P 16153.86867837 .00000262 00000-0 66615-4 0 9995 2 31130 98.0318 109.8932 0095516 304.3605 54.8585 14.55929227483903 AAUSAT2 1 32788U 08021F 16154.83608523 .00000740 00000-0 76073-4 0 9999 2 32788 97.6046 198.1808 0011072 324.6525 35.3960 14.93198306439056 DO-64 1 32789U 08021G 16154.81792276 .00002239 00000-0 16986-3 0 9998 2 32789 97.6081 214.2965 0011340 317.6507 42.3842 15.03186813439846 CO-66 1 32791U 08021J 16154.81547766 .00000667 00000-0 75030-4 0 9992 2 32791 97.6045 192.7420 0012907 340.4241 19.6479 14.89757925438656 RS-30 1 32953U 08025A 16154.71601951 .00000010 00000-0 -13620-7 0 9995 2 32953 82.5015 115.6501 0020154 35.9783 324.2656 12.43069608364281 JUGNU 1 37839U 11058B 16154.45972100 .00000327 00000-0 32793-4 0 9990 2 37839 19.9606 232.8652 0018954 318.6089 138.8810 14.12542113239943 SRMSAT 1 37841U 11058D 16153.70572188 .00000321 00000-0 31295-4 0 9992 2 37841 19.9722 271.3035 0011630 222.2646 273.6601 14.10540808239494 AO-71 1 37854U 11061E 16154.05023029 .00004414 00000-0 25042-3 0 9993 2 37854 101.7047 189.0080 0173411 118.5577 243.3210 15.02105064249820 HRBE 1 37855U 11061F 16154.12533446 .00003721 00000-0 20831-3 0 9992 2 37855 101.7167 187.2044 0187099 122.5054 239.4390 15.01012416249738 HORYU-2 1 38340U 12025D 16154.18026191 .00000482 00000-0 79703-4 0 9997 2 38340 98.3541 139.2529 0013015 63.3493 296.9046 14.75021642217265 RS-40 1 38735U 12041C 16154.73187063 .00000040 00000-0 21992-3 0 9996 2 38735 82.4769 200.7785 0017860 132.0389 228.2207 12.42572940174574 BEESAT-3 1 39134U 13015E 16154.86589753 .00002769 00000-0 15377-3 0 9998 2 39134 64.8718 9.0055 0008909 273.9736 86.0371 15.15904780171945 BEESAT-2 1 39136U 13015G 16153.92670674 .00002271 00000-0 13634-3 0 9991 2 39136 064.8728 017.8852 0007465 278.4551 081.5727 15.13579881171304 ZACUBE-1 1 39417U 13066B 16154.81412739 .00000545 00000-0 75759-4 0 9993 2 39417 97.6809 208.2997 0061139 70.4325 290.3476 14.80390071136647 TRITON-1 1 39427U 13066M 16154.08569234 .00000463 00000-0 82198-4 0 9990 2 39427 97.6682 188.3505 0116134 125.2480 235.9660 14.67181307135304 GOMX-1 1 39430U 13066Q 16154.78026455 .00000435 00000-0 88352-4 0 9991 2 39430 97.6711 176.8225 0152907 160.4522 200.2621 14.58588213134621 LO-74 1 39440U 13066AA 16154.77099327 .00000531 00000-0 81618-4 0 9994 2 39440 97.6747 200.5874 0082758 90.4506 270.6188 14.75151698136157 SPROUT 1 39770U 14029E 16154.81440065 .00001130 00000-0 13753-3 0 9994 2 39770 97.8704 252.2057 0010703 125.9314 234.2899 14.85364691109804 EO-80 1 40032U 14033Y 16154.73910240 .00000593 00000-0 71355-4 0 9995 2 40032 97.9283 59.6769 0013529 103.7080 256.5643 14.87568558106027 VELOX-1 1 40057U 14034E 16154.76679442 .00000687 00000-0 10572-3 0 9999 2 40057 98.1943 243.3508 0010785 186.4146 173.6931 14.76698489103756 DAURIA DX 1 1 40071U 14037C 16154.88209344 .00000289 00000-0 44857-4 0 9993 2 40071 98.3306 245.2372 0008327 182.9468 177.1687 14.80813977102835 UKUBE-1 1 40074U 14037F 16154.70533616 .00000670 00000-0 89427-4 0 9995 2 40074 98.3357 247.1270 0004323 177.4521 182.6727 14.83065710102926 HODOYOSHI-1 1 40299U 14070B 16154.86727181 .00001566 00000-0 72995-4 0 9997 2 40299 97.4302 236.9333 0013325 349.3603 146.7431 15.21292728 87259 CHUBUSAT-1 1 40300U 14070C 16154.85905889 .00001750 00000-0 84500-4 0 9992 2 40300 97.4258 235.1960 0021140 353.1518 100.0614 15.19799666 87156 QSAT-EOS 1 40301U 14070D 16154.89228132 .00003398 00000-0 15461-3 0 9995 2 40301 97.4201 234.5464 0029042 351.3816 114.3560 15.21033153 87138 FIREBIRD FU3 1 40377U 15003B 16154.84513056 .00006277 00000-0 28460-3 0 9994 2 40377 99.0850 258.9494 0144720 176.8168 183.4014 15.12374148 73614 FIREBIRD FU4 1 40378U 15003C 16154.84161867 .00006451 00000-0 29203-3 0 9994 2 40378 99.0853 258.9591 0144942 176.7729 183.4467 15.12382911 73613 GRIFEX 1 40379U 15003D 16154.82704971 .00004530 00000-0 21495-3 0 9993 2 40379 99.0863 258.1417 0148715 180.2557 179.8617 15.10655025 73562 NO-84 1 40654U 15025D 16154.41252026 .00016586 00000-0 35077-3 0 01332 2 40654 054.9946 123.7475 0211632 037.1137 324.4307 15.24968354021782 NO-83 1 40655U 15025E 16154.30648773 .00026143 00000-0 50688-3 0 01480 2 40655 054.9835 118.3634 0194168 039.1902 322.3031 15.29690717021829 DEORBITSAIL 1 40719U 15032E 16154.77744256 .00000816 00000-0 12717-3 0 9997 2 40719 98.0190 46.5348 0015291 285.6707 74.2815 14.75529672 48369 NUDT-PHONESAT 1 40900U 15049B 16154.87009527 .00004658 00000-0 23996-3 0 9992 2 40900 97.4452 162.8507 0017025 104.4392 15.1695 15.16753948 38909 XW-2D 1 40907U 15049J 16154.78201684 .00001670 00000-0 96348-4 0 9990 2 40907 97.4500 162.0529 0016904 85.7237 31.3984 15.13594874 38820 XW-2F 1 40910U 15049M 16154.88636737 .00002996 00000-0 16781-3 0 9990 2 40910 97.4538 162.3255 0018098 84.6410 33.4896 15.14038421 38738 XW-2B 1 40911U 15049N 16154.89911068 .00001710 00000-0 98660-4 0 9995 2 40911 97.4547 162.3315 0016713 85.5603 312.7919 15.13579926 38741 DCBB 1 40912U 15049P 16154.89546396 .00003022 00000-0 16030-3 0 9992 2 40912 97.4533 163.0630 0018354 80.7806 341.6734 15.15971659 38792 TW-1C 1 40926U 15051B 16154.74803771 .00010534 00000-0 29904-3 0 9997 2 40926 97.2767 191.8242 0016420 100.6511 36.3196 15.36247092 38542 TW-1A 1 40928U 15051D 16154.73001946 .00004998 00000-0 15785-3 0 9991 2 40928 97.2713 191.0540 0015896 115.7862 21.5469 15.33161698 38509 IO-86 1 40931U 15052B 16154.62336437 .00000814 00000-0 24393-4 0 9999 2 40931 5.9981 58.9506 0014022 275.8375 84.0198 14.76462821 36774 GomX-3 1 40949U 98067HA 16154.81156039 .00040976 00000-0 23734-3 0 9994 2 40949 51.6307 108.6978 0003637 134.8099 225.3198 15.78139464 37796 LQSat 1 40958U 15057A 16154.84104334 .00000134 00000-0 28686-4 0 9990 2 40958 98.0149 229.9234 0017693 196.0814 163.9823 14.72867422 35277 AO-85 1 40967U 15058D 16154.34215445 .00000996 00000-0 12329-3 0 01491 2 40967 064.7783 290.8497 0205469 210.1167 148.8014 14.75008249021083 ATHENOXAT-1 1 41168U 15077C 16154.90269722 .00003653 00000-0 17867-3 0 9993 2 41168 14.9888 56.8693 0012817 163.7204 283.2622 15.09918056 25599 ChubuSat-2 1 41338U 16012B 16153.94147740 .00000649 00000-0 44787-4 0 9994 2 41338 031.0042 006.6055 0014325 256.7977 103.1062 14.99379892015865 ChubuSat-3 1 41339U 16012C 16154.79020312 .00000673 00000-0 46459-4 0 9999 2 41339 31.0116 1.0064 0014086 270.6635 89.2389 14.99611298 15963 Horyu-4 1 41340U 16012D 16154.89877471 .00001041 00000-0 74842-4 0 9995 2 41340 31.0062 359.9312 0014627 276.5131 83.3854 15.00011233 16007 OUFTI-1 1 41458U 16025C 16154.81833283 .00003800 00000-0 21615-3 0 9998 2 41458 98.2135 164.4859 0178734 115.2920 246.6945 15.00947374 5628 e-st@r-II 1 41459U 16025D 16154.81802024 .00003482 00000-0 19841-3 0 9992 2 41459 98.2145 164.4867 0178832 115.3342 246.6525 15.00950079 5627 AAUSAT4 1 41460U 16025E 16154.81673629 .00005190 00000-0 29283-3 0 9990 2 41460 98.2130 164.4876 0178385 115.3608 246.6188 15.01059981 5629 MinXSS 1 41474U 98067HU 16154.48713231 .00020967 00000-0 30034-3 0 9993 2 41474 51.6424 131.2222 0003749 86.2581 358.8746 15.56128017 2649 CADRE 1 41475U 98067HV 16154.48534817 .00040749 00000-0 56692-3 0 9993 2 41475 51.6431 131.2102 0003608 90.5978 354.3523 15.56547848 2648 STMSat 1 1 41476U 98067HW 16154.37077135 .00028524 00000-0 40473-3 0 9994 2 41476 51.6427 131.8068 0003300 79.1627 72.8782 15.56195759 2531 NODES 1 1 41477U 98067HX 16154.48886784 .00021165 00000-0 30486-3 0 9992 2 41477 51.6427 131.2310 0003294 79.8717 6.8516 15.55972300 2553 NODES 2 1 41478U 98067HY 16154.37158646 .00020906 00000-0 30155-3 0 9995 2 41478 51.6425 131.8178 0003231 78.7024 69.4172 15.55942645 2530 LUSEX 1 41557U 16033B 16154.75176373 -.00000074 00000-0 00000 0 0 9992 2 41557 97.4980 227.8649 0013229 262.7181 251.5541 15.25220346 556 /EX